Temperature
19 18 17 18 19 20 19 19 19 20 20 19 18 18 18 18 18 17 17 18 18 18 18 17 17 16 16 15 14 14 13 13 13 13 13 13 13 12 12 12 12 12 12 13
18 18 19 19 19 19 19 19 20 20 20 19 18 18 17 17 17 18 18 18 18 18 18 17 17 16 16 15 14 14 13 13 13 13 13 12 12 12 12 12 12 12 12 12
19 19 20 20 19 19 19 19 20 20 19 19 19 18 18 17 17 18 18 18 18 18 18 17 17 16 16 15 14 14 13 13 13 12 12 12 12 12 12 12 12 12 12 12
19 20 20 20 19 20 19 20 20 20 18 17 18 17 17 17 17 16 17 18 18 18 18 17 17 16 16 15 14 14 13 13 13 12 12 12 12 12 12 12 12 12 12 12
19 19 20 20 20 20 20 19 19 19 18 17 17 17 16 16 17 16 16 18 18 18 18 18 17 16 16 15 14 14 13 13 13 12 12 12 12 12 12 12 12 12 12 12
19 20 20 20 20 20 19 18 17 15 15 17 17 16 16 15 16 17 17 18 18 19 18 17 17 16 15 15 14 14 13 13 13 12 12 12 12 12 12 12 12 12 12 12
20 20 20 20 20 19 19 17 17 17 16 16 17 16 16 17 16 17 17 18 19 19 18 17 17 16 16 15 14 14 13 13 13 13 12 12 12 12 11 11 12 12 12 12
20 19 21 21 20 19 18 18 17 18 17 16 16 16 16 17 17 18 18 19 19 18 18 18 17 16 16 15 14 14 13 13 13 13 12 12 12 12 12 11 11 11 11 11
19 20 21 21 20 19 18 17 16 15 16 16 16 16 17 18 18 17 17 18 19 19 18 18 17 16 16 15 15 14 14 13 13 13 12 12 12 12 12 11 11 11 11 11
19 20 20 21 20 18 18 15 14 15 16 16 16 17 16 18 17 17 16 17 19 19 18 18 17 17 16 15 15 14 14 13 13 13 13 12 12 12 12 12 12 11 11 12
19 19 20 20 21 20 18 16 14 13 14 15 16 16 16 17 17 16 16 18 19 19 19 18 17 17 16 15 15 14 14 14 13 13 13 12 12 12 12 12 12 11 11 12
17 16 18 19 19 19 19 17 15 16 15 13 14 15 17 16 16 17 18 19 20 19 19 18 18 17 16 16 15 15 14 14 13 13 13 13 12 12 12 12 12 12 12 12
17 17 18 18 18 19 19 17 15 13 12 12 14 16 17 17 17 18 19 20 20 19 19 18 18 17 16 16 15 15 14 14 14 13 13 13 13 12 12 12 12 12 12 12
17 17 18 19 18 18 19 18 15 15 14 13 13 15 17 17 17 17 19 20 20 20 19 18 18 17 17 16 16 15 15 14 14 13 13 13 13 12 12 12 12 12 12 12
18 18 18 18 18 18 19 18 16 16 15 15 16 15 17 17 16 18 20 20 20 19 19 19 18 18 17 16 16 16 15 15 14 14 13 13 13 13 12 12 12 12 12 12
16 18 19 19 19 18 18 18 17 16 16 15 16 16 16 17 18 19 19 19 20 20 19 19 18 18 17 17 16 16 15 15 15 14 14 13 13 13 13 13 12 12 12 12
15 17 17 17 17 19 18 18 17 17 16 16 17 18 17 17 16 19 20 20 21 20 20 19 19 18 18 17 17 16 16 15 15 14 14 14 14 13 13 13 13 13 13 13
15 15 14 15 18 19 18 18 18 18 18 16 17 17 17 18 21 22 22 22 21 21 20 20 19 18 18 17 17 16 16 16 15 15 14 14 14 14 13 13 13 13 13 13
14 14 13 14 16 17 17 18 18 18 18 17 17 18 18 19 19 20 22 22 21 21 20 20 19 18 18 17 17 17 16 16 15 15 15 14 14 14 14 14 13 13 13 13
13 13 13 13 17 17 18 20 19 19 19 19 17 17 17 17 16 18 22 22 21 21 20 20 19 18 18 17 17 17 16 16 16 15 15 15 14 14 14 14 14 13 13 13
15 14 14 14 15 16 17 18 19 19 19 21 20 19 18 17 20 22 22 22 21 20 20 19 19 18 18 17 17 17 16 16 16 15 15 15 15 14 14 14 14 14 13 13
15 14 13 12 15 16 18 18 18 19 21 22 22 22 21 22 22 22 22 22 21 20 20 19 19 18 18 17 17 17 16 16 16 15 15 15 15 14 14 14 14 14 14 13
13 14 13 14 16 18 19 20 21 21 22 23 23 23 23 22 22 22 22 21 21 20 19 19 18 18 18 17 17 17 16 16 16 15 15 15 15 14 14 14 14 14 13 13
14 13 13 13 14 17 20 21 22 22 22 23 23 23 23 23 23 22 21 21 20 20 19 19 18 18 18 17 17 17 16 16 16 15 15 15 14 14 14 14 13 13 13 13
15 13 13 14 14 17 21 22 22 22 22 23 23 23 23 23 22 22 21 21 20 20 19 18 18 18 17 17 17 16 16 16 15 15 15 14 14 14 13 13 13 13 13 12
13 14 14 15 17 17 20 22 21 21 22 22 22 23 23 23 22 22 21 21 20 20 19 18 18 17 17 17 16 16 16 15 15 15 14 14 14 13 13 12 12 12 12 12
Wind_Speed
5 5 6 10 9 6 6 6 5 5 4 6 7 8 6 5 7 8 7 7 8 8 5 4 4 3 2 1 1 1 2 3 2 2 2 3 3 4 4 3 4 5 5 4
5 4 7 6 5 5 5 4 4 3 2 4 3 6 6 5 8 8 10 9 9 6 4 4 4 3 3 2 2 3 3 3 2 2 2 2 3 3 3 4 4 5 5 4
7 5 6 7 7 6 4 5 5 3 2 3 2 7 5 2 3 5 6 7 7 9 9 7 6 5 3 4 4 3 4 3 3 3 2 2 3 3 3 4 4 4 5 4
3 3 6 7 6 7 5 5 4 4 3 2 1 4 6 4 3 5 7 7 8 8 7 7 6 6 6 6 4 4 4 3 3 2 2 2 2 2 3 3 4 5 5 4
3 5 6 6 6 7 3 3 4 3 4 2 1 2 8 3 5 7 8 9 9 9 8 8 8 7 6 5 4 3 3 3 3 2 2 2 2 2 3 3 5 5 5 4
1 1 3 5 3 4 6 7 7 6 5 2 3 4 7 5 7 6 6 8 9 8 8 7 6 5 4 3 3 3 3 4 3 2 2 2 3 3 4 4 5 5 4 4
3 1 0 4 5 4 5 6 4 4 4 5 3 3 8 7 7 7 7 8 8 8 8 7 7 6 6 5 4 3 3 4 4 3 3 3 3 2 3 4 4 4 4 4
4 1 2 2 5 6 5 7 6 4 4 5 3 5 8 6 5 4 5 5 7 8 8 8 8 7 6 6 5 4 4 4 4 3 3 3 3 2 2 3 3 3 3 4
6 3 2 1 3 9 7 4 6 6 2 2 6 7 8 2 2 2 3 5 7 8 8 8 8 7 7 6 6 6 5 5 4 3 3 3 3 2 3 3 3 3 4 4
6 3 2 0 6 6 5 9 6 5 3 3 7 6 5 7 7 6 6 7 8 7 7 8 7 7 7 6 5 4 4 5 4 3 2 2 2 3 3 3 4 4 5 4
3 4 2 2 2 5 5 5 6 5 5 5 4 7 7 8 8 9 10 9 9 9 8 8 8 7 6 5 4 4 4 4 3 3 2 2 3 3 3 3 4 4 4 4
4 5 1 3 2 2 5 7 8 5 4 5 4 8 7 7 7 7 9 8 7 8 7 7 7 5 5 5 5 5 5 4 4 3 2 2 2 2 3 3 4 4 4 4
6 6 3 6 6 1 2 4 5 6 6 6 5 8 5 3 5 6 8 8 7 7 7 6 5 6 6 6 6 6 5 5 4 3 2 2 2 2 3 3 4 4 4 5
5 4 6 7 7 5 4 5 6 7 5 6 9 10 8 7 7 8 8 8 7 7 7 7 7 7 7 6 6 6 6 5 4 3 3 3 3 3 3 3 3 4 3 4
5 3 5 6 6 4 6 7 8 9 9 10 10 10 12 10 10 9 7 7 7 7 7 9 8 8 7 6 6 6 6 5 4 4 4 5 4 3 3 3 3 3 3 4
3 4 2 3 3 4 5 8 9 9 7 8 8 10 11 8 5 5 7 8 9 9 10 10 9 8 8 8 7 6 6 6 5 5 5 4 3 3 3 3 3 4 4 4
3 5 3 4 5 3 7 9 10 8 8 10 11 13 7 6 9 10 10 10 11 11 10 10 10 10 9 9 8 8 7 5 5 6 5 4 3 4 4 3 3 4 4 3
7 6 4 1 1 6 9 5 7 8 9 11 10 9 9 11 9 7 9 11 11 10 10 10 9 9 8 7 6 6 5 5 5 5 5 5 4 4 4 3 4 4 3 3
5 8 5 4 3 8 10 6 6 7 8 9 12 11 7 4 2 4 8 10 11 10 9 9 9 7 7 7 7 6 5 5 5 5 6 5 5 5 4 4 5 4 3 4
5 5 6 4 3 6 9 5 4 4 6 7 9 9 7 9 4 7 7 9 9 8 7 7 7 6 6 6 7 7 6 5 6 7 6 5 5 5 5 6 5 3 3 4
2 3 4 5 6 8 10 4 5 3 8 5 7 8 11 11 9 5 6 8 8 7 7 7 8 7 6 7 8 7 6 7 7 5 4 4 4 5 5 4 3 3 3 3
8 6 6 6 5 9 6 6 8 9 5 3 5 7 11 10 5 4 7 8 9 8 7 8 8 6 5 7 9 7 6 6 4 3 3 3 3 3 3 3 3 3 2 3
8 9 7 9 9 7 4 8 7 4 6 6 6 7 9 8 7 7 7 8 8 9 8 7 8 7 5 6 8 8 6 4 4 3 2 2 2 2 1 2 2 2 1 2
5 4 4 6 10 9 9 8 8 7 8 8 7 6 9 9 9 9 8 8 8 8 8 8 9 8 6 5 6 6 4 4 5 4 2 1 0 1 1 1 0 0 1 2
6 5 4 7 10 10 9 7 7 6 7 7 7 7 10 10 9 10 10 10 9 8 7 8 9 9 7 6 5 4 4 5 5 4 2 1 1 1 1 2 2 2 2 1
6 8 7 10 10 7 10 10 7 8 9 9 8 7 8 10 11 11 10 9 9 9 8 8 9 8 7 7 5 3 4 6 6 4 3 2 2 2 2 3 4 7 6 11
Wind_Direction
125 115 167 188 186 177 171 181 220 244 188 179 224 256 264 205 198 203 203 204 209 216 218 191 184 176 161 194 266 285 305 317 336 344 342 337 329 325 331 332 341 343 344 345
96 188 198 170 154 143 158 182 232 275 154 179 248 278 276 214 209 207 205 206 207 205 197 194 192 189 201 228 250 268 279 296 311 304 289 273 285 297 297 311 333 345 346 344
155 197 151 135 147 154 181 192 211 206 64 52 11 317 307 287 224 202 199 199 200 200 201 202 202 211 222 237 241 250 261 281 302 316 334 345 348 337 340 339 336 331 339 342
155 154 138 139 168 162 221 223 185 146 108 310 62 287 292 298 278 225 210 200 204 206 200 202 206 216 226 235 240 249 259 280 303 327 349 354 349 325 305 308 310 320 334 340
173 156 147 169 191 171 179 63 99 100 123 23 15 182 287 313 265 250 227 213 211 207 201 206 210 218 227 231 233 247 267 284 306 329 328 337 325 296 303 315 329 336 336 338
129 170 170 174 113 129 122 74 59 51 70 325 239 177 278 243 229 247 229 212 207 204 204 213 219 221 233 236 239 246 262 281 302 322 325 320 310 318 333 339 343 340 335 336
57 18 343 131 103 74 93 88 34 356 6 258 272 204 251 256 239 227 223 215 205 197 196 205 211 218 228 234 236 239 251 275 297 309 309 304 302 310 317 321 330 336 336 334
127 256 247 178 157 154 147 135 156 205 234 283 311 238 256 262 269 236 214 197 191 194 199 207 213 216 224 234 235 233 243 263 286 293 297 305 310 308 304 312 317 322 318 313
158 222 334 91 126 127 128 140 153 131 160 293 288 286 301 238 244 196 183 179 200 207 208 215 220 221 224 231 231 226 231 253 273 280 293 309 317 318 317 325 334 331 327 330
143 146 336 94 83 44 126 138 103 112 144 276 298 284 257 251 239 231 219 218 223 217 215 219 221 222 225 227 231 224 221 237 256 270 281 299 309 313 320 338 345 341 338 346
122 128 2 46 161 175 114 97 102 107 143 157 275 278 231 228 222 218 225 223 220 216 214 216 218 220 223 226 221 220 223 234 252 262 277 304 314 323 339 344 335 335 339 348
124 114 126 275 283 219 177 164 147 149 195 167 188 270 268 246 240 222 229 229 221 216 213 212 213 211 216 223 223 222 223 228 239 243 259 286 307 333 343 332 329 337 343 347
136 110 68 349 341 344 160 151 143 125 120 154 180 263 295 280 241 228 228 230 223 217 211 206 205 211 219 224 225 225 225 228 234 224 239 279 300 313 314 314 324 336 341 345
115 116 163 201 226 212 209 177 154 136 157 200 221 248 284 267 245 238 228 224 217 215 207 203 210 219 223 225 224 226 231 225 219 209 223 252 268 274 287 304 319 326 331 337
111 163 217 236 237 205 222 214 184 191 194 198 230 230 249 243 231 230 222 211 206 213 212 211 213 218 220 225 228 224 227 220 206 203 224 245 260 270 286 299 308 316 324 327
105 158 186 289 288 226 247 241 210 216 212 221 245 260 248 246 220 220 214 203 208 217 218 216 213 212 214 218 220 218 222 216 197 208 228 242 253 263 273 284 299 312 317 320
137 140 142 267 308 351 274 237 206 207 206 191 219 242 239 208 213 217 213 206 211 215 214 211 209 209 211 211 208 211 215 198 193 213 230 237 242 254 263 276 294 297 300 310
146 135 144 202 20 250 247 252 205 215 235 211 222 238 220 215 221 222 204 200 212 212 209 210 207 206 208 203 198 195 183 184 197 214 230 234 231 246 260 270 275 278 283 289
147 139 130 142 219 278 293 270 188 196 263 223 219 236 228 189 107 282 219 201 208 206 201 201 196 192 188 189 182 166 172 179 195 218 231 232 223 236 251 259 264 265 270 281
78 106 124 142 186 247 255 262 179 140 281 253 203 213 178 136 168 246 218 192 200 193 184 180 171 165 173 181 160 160 176 184 211 225 231 229 217 224 240 250 257 255 252 269
112 102 151 174 215 259 253 252 135 168 246 259 196 192 170 183 204 217 173 175 177 175 172 160 155 164 176 161 152 163 177 207 223 223 224 228 224 229 239 250 252 256 265 282
185 175 189 159 191 253 244 154 181 220 251 247 210 193 190 209 208 180 174 173 166 161 157 154 154 163 157 153 156 168 197 221 210 192 206 233 244 248 250 250 267 264 263 286
201 195 189 190 215 240 227 216 242 247 253 246 223 214 194 196 202 192 186 179 173 168 162 158 155 150 144 158 164 177 208 201 172 167 199 238 267 279 283 261 276 288 271 273
257 179 179 245 266 264 260 252 254 235 237 251 236 216 188 196 198 190 185 180 175 171 166 156 150 152 159 164 169 186 187 164 155 167 195 211 242 328 352 359 357 0 319 300
240 174 215 259 277 299 293 258 255 257 251 251 237 215 203 196 196 190 188 185 180 172 165 160 161 161 164 158 162 171 165 152 150 156 155 131 112 101 65 62 64 67 45 65
210 202 215 246 250 248 274 284 284 271 265 252 237 232 216 199 198 191 189 184 175 169 161 158 158 157 157 152 151 153 152 149 146 141 136 124 113 102 100 93 68 54 63 54
Height
1492 1499 1505 1504 1503 1506 1509 1514 1516 1511 1507 1511 1513 1512 1508 1509 1510 1512 1513 1514 1516 1517 1519 1520 1521 1521 1521 1520 1519 1518 1516 1513 1511 1509 1507 1504 1503 1501 1499 1497 1496 1494 1493 1492
1496 1500 1496 1497 1501 1505 1508 1513 1514 1510 1507 1510 1513 1512 1507 1507 1507 1508 1509 1511 1513 1515 1517 1518 1519 1520 1520 1519 1518 1517 1515 1513 1510 1508 1506 1504 1502 1500 1498 1496 1494 1493 1492 1491
1495 1495 1493 1497 1502 1507 1509 1511 1511 1511 1510 1511 1513 1516 1510 1506 1505 1506 1508 1509 1511 1513 1515 1516 1517 1518 1519 1518 1517 1516 1514 1512 1510 1508 1505 1503 1501 1499 1497 1495 1493 1492 1490 1489
1492 1491 1493 1498 1502 1503 1510 1503 1505 1509 1517 1523 1519 1531 1514 1508 1506 1505 1505 1507 1509 1511 1513 1515 1516 1517 1517 1517 1516 1515 1513 1511 1509 1507 1505 1503 1501 1498 1497 1495 1493 1491 1490 1488
1493 1492 1494 1498 1498 1499 1504 1502 1506 1510 1517 1525 1524 1530 1521 1510 1507 1504 1502 1504 1506 1509 1511 1513 1514 1515 1516 1516 1515 1514 1512 1511 1509 1507 1505 1503 1501 1499 1497 1494 1492 1491 1489 1488
1491 1490 1491 1493 1495 1497 1502 1507 1513 1521 1526 1534 1524 1530 1525 1513 1505 1501 1499 1501 1503 1506 1509 1511 1513 1514 1514 1514 1514 1513 1512 1510 1508 1506 1504 1503 1501 1499 1496 1494 1492 1491 1489 1488
1495 1493 1491 1491 1497 1500 1503 1517 1533 1534 1542 1537 1524 1527 1521 1503 1499 1498 1497 1498 1501 1504 1507 1509 1511 1512 1512 1513 1512 1512 1511 1509 1508 1506 1504 1502 1501 1499 1496 1494 1492 1491 1489 1487
1502 1505 1493 1491 1494 1501 1506 1513 1532 1540 1543 1537 1525 1526 1511 1497 1495 1495 1495 1497 1499 1502 1505 1507 1509 1510 1511 1511 1511 1511 1510 1509 1507 1506 1504 1502 1501 1499 1497 1495 1493 1491 1489 1487
1502 1503 1491 1490 1491 1496 1507 1513 1516 1531 1534 1538 1531 1519 1504 1495 1494 1494 1495 1496 1498 1500 1503 1505 1507 1508 1509 1510 1510 1510 1509 1508 1507 1505 1504 1502 1501 1499 1497 1495 1493 1491 1489 1487
1493 1501 1494 1491 1492 1498 1501 1511 1523 1531 1539 1541 1532 1523 1515 1498 1495 1494 1494 1494 1496 1498 1501 1503 1505 1506 1507 1508 1509 1508 1508 1507 1506 1505 1504 1502 1501 1499 1497 1495 1493 1491 1489 1487
1490 1500 1500 1495 1497 1500 1506 1512 1521 1532 1534 1543 1541 1527 1498 1493 1490 1491 1491 1492 1494 1496 1498 1500 1502 1504 1506 1507 1507 1507 1507 1506 1505 1504 1503 1502 1501 1499 1498 1496 1494 1492 1490 1488
1492 1502 1508 1501 1495 1494 1497 1504 1514 1524 1530 1537 1540 1526 1490 1489 1487 1487 1488 1490 1492 1494 1496 1498 1500 1502 1503 1504 1505 1505 1505 1505 1504 1504 1503 1502 1501 1499 1498 1496 1494 1493 1491 1489
1491 1502 1514 1512 1508 1499 1498 1502 1507 1516 1528 1538 1537 1519 1488 1486 1485 1485 1486 1488 1489 1492 1494 1496 1498 1499 1501 1502 1503 1504 1504 1504 1503 1503 1502 1501 1500 1499 1498 1496 1495 1493 1491 1490
1487 1499 1508 1512 1508 1499 1498 1501 1506 1511 1523 1529 1524 1509 1492 1486 1484 1483 1484 1485 1487 1489 1491 1493 1495 1497 1499 1500 1501 1502 1502 1502 1502 1502 1501 1501 1500 1499 1497 1496 1495 1493 1492 1490
1487 1496 1496 1496 1494 1494 1494 1495 1501 1504 1505 1511 1505 1502 1488 1482 1480 1479 1481 1482 1485 1486 1488 1490 1492 1494 1496 1497 1499 1500 1500 1501 1501 1501 1500 1500 1499 1498 1497 1496 1495 1493 1492 1491
1488 1493 1495 1495 1491 1492 1494 1491 1493 1495 1496 1498 1495 1491 1477 1475 1476 1477 1478 1479 1481 1483 1485 1487 1489 1491 1493 1495 1496 1498 1498 1499 1499 1499 1499 1499 1498 1498 1497 1496 1495 1493 1492 1491
1491 1495 1501 1503 1496 1492 1497 1485 1485 1486 1484 1486 1489 1479 1471 1473 1472 1472 1473 1475 1477 1479 1481 1484 1486 1488 1490 1492 1494 1495 1497 1497 1498 1498 1498 1498 1497 1497 1496 1495 1494 1493 1492 1491
1490 1496 1504 1505 1499 1504 1488 1472 1473 1476 1473 1473 1471 1467 1466 1466 1466 1468 1469 1471 1473 1476 1478 1481 1483 1485 1488 1490 1492 1493 1495 1495 1496 1496 1496 1496 1496 1496 1495 1495 1494 1493 1492 1491
1483 1493 1504 1509 1506 1499 1482 1469 1470 1473 1471 1462 1463 1461 1462 1464 1466 1466 1466 1468 1470 1473 1475 1478 1480 1483 1485 1487 1489 1491 1492 1493 1494 1494 1495 1495 1495 1494 1494 1494 1493 1492 1491 1490
1485 1488 1500 1508 1502 1501 1481 1464 1464 1468 1470 1455 1455 1456 1459 1462 1470 1464 1462 1465 1468 1470 1473 1475 1478 1480 1483 1485 1487 1489 1490 1491 1492 1492 1493 1493 1493 1493 1492 1492 1491 1491 1490 1489
1489 1494 1499 1504 1502 1491 1467 1462 1464 1477 1470 1452 1451 1452 1454 1456 1457 1457 1459 1462 1465 1468 1470 1473 1475 1478 1480 1482 1484 1486 1488 1489 1490 1490 1491 1491 1491 1491 1490 1490 1489 1489 1488 1487
1487 1492 1497 1501 1501 1490 1459 1461 1464 1460 1451 1450 1449 1449 1450 1451 1453 1455 1457 1460 1462 1465 1468 1470 1473 1475 1478 1480 1482 1484 1485 1487 1488 1488 1489 1489 1489 1488 1488 1488 1487 1486 1485 1484
1479 1477 1479 1480 1474 1458 1456 1455 1453 1452 1450 1448 1447 1447 1448 1449 1451 1453 1455 1457 1460 1463 1465 1468 1470 1473 1475 1477 1479 1481 1483 1484 1485 1486 1486 1486 1486 1486 1485 1485 1484 1483 1482 1482
1470 1469 1471 1471 1461 1453 1451 1449 1448 1448 1447 1446 1446 1446 1446 1447 1448 1450 1452 1455 1457 1460 1462 1465 1467 1470 1472 1475 1477 1479 1480 1481 1482 1483 1483 1483 1483 1483 1482 1482 1481 1480 1479 1478
1465 1467 1468 1466 1456 1450 1445 1445 1445 1444 1443 1443 1443 1443 1443 1444 1445 1447 1449 1451 1454 1457 1459 1462 1464 1467 1469 1472 1474 1476 1477 1478 1479 1480 1480 1480 1480 1480 1480 1479 1478 1477 1476 1475
1460 1461 1463 1458 1450 1450 1445 1443 1442 1441 1439 1439 1439 1438 1439 1440 1441 1443 1445 1448 1450 1453 1456 1458 1461 1464 1466 1469 1471 1473 1474 1475 1476 1476 1477 1477 1477 1477 1477 1476 1476 1474 1474 1473